User: anonymous   Login
Location: Unspecified
(0.0000°N, 0.0000°E)
Time: 23:32:06
(UTC+00:00)
Language:

GRACE-FO 2 - Orbit

View from above orbital plane
View from above orbital plane
View from above satellite
View from above satellite

Ground track
Ground track

The orbit data is extracted from the following two-line orbital elements,

1 43477U 18047B   19203.69844905 -.00000286  00000-0 -11780-4 0    07
2 43477  88.9998 182.1451 0020328  91.1458 346.9540 15.23887806 64855
Epoch (UTC): 22 July 2019 16:45:45
Eccentricity: 0.0020328
inclination: 88.9998°
perigee height: 480 km
apogee height: 508 km
right ascension of ascending node: 182.1451°
argument of perigee: 91.1458°
revolutions per day: 15.23887806
mean anomaly at epoch: 346.9540°
orbit number at epoch: 6485

The dashed part of the orbit path shows where the satellite is in the earth's shadow,  

DLR